COSMOS 2251 DEB, 35961

Orbit data source: Space-Track

COSMOS 2251 DEB, 35961 is space debris in LEO originally from a launch on Wed, 16 Jun 1993 UTC launched from the Plesetsk Missile And Space Complex (PKMTR). The debris from Iridium 33, an American commercial communications satellite, has been tracked extensively since its accidental collision with the defunct Russian satellite Cosmos 2251 in 2009. This event, occurring at high speed in low Earth orbit (LEO), generated thousands of pieces of space debris, significantly increasing the risk of further collisions. The Iridium 33 debris cloud has impacted space traffic management and orbital debris mitigation strategies, making it a subject of ongoing study in space situational awareness.

Loading next visibility...
Identifier
35961, 1993-036AVB
Orbit
LEO
Country
Flag of CISCIS
Related business
Manufacturer
Unknown
Mission
Spacecraft
Bus & Motor
Unknown
Mass
Unknown
Launch date (UTC)
1993-06-16 (33 years ago)
Launch vehicle
Unknown
Launch site
Plesetsk Missile And Space Complex (PKMTR)
Object type
Payload
Rocket body
Debris
Shape & HBR
Unknown shape, 0.1 m
Radar Cross Section
Small (<0.1 m²)

Expand to show TLE details & history
Last TLE update: 4 days ago

TLE from 4 days ago
0 COSMOS 2251 DEB
1 35961U 93036AVB 26117.82087452  .00002181  00000-0  11440-2 0  9992
2 35961  73.9264 324.6688 0187630 229.0989 129.3769 14.06184393645942
Epoch: 2026-04-27T19:42Z
TLE epoch observation values (Epoch: 2026-04-27T19:42:03.558Z)
Latitude
0.00003°
Longitude
173.34894°
Altitude
962.847 km
Speed
7.326 km/s
True Right ascension
21h 38m 40s
True Declination
0° 00' 00"
Sunlit
Object was in daylight at epoch
Visualization orbit readout
Latitude
Unknown
Longitude
Unknown
Altitude
Unknown
Speed
Unknown
Apparent Right ascension
Unknown
Apparent Declination
Unknown
Sunlit
N/A
Visualization observer readout
Local Sidereal Time
01:16:42
Azimuth
Unknown
Elevation
Unknown
Doppler factor
Unknown
Orbital elements
Apogee altitude
1,006.122 km
Perigee altitude
734.124 km
Semi-major axis
7,248.26 km
Eccentricity
0.01876
Inclination
73.9264°
RAAN
324.6688°
Arg. of periapsis
229.0989°
True anomaly
131.01429°
Mean anomaly
129.3769°
Eccentric anomaly
130.19804°
Mean motion
3.51716 °/min
Orbital period
102.36 mins
BSTAR
0.001144
Loading maneuver chart data...
Computing Atmospheric mass density...

Documentation

Showing up to 5 results
|